DLH824 LIPZ-EDDF

Flight info

Callsign DLH824
Flight time N/A
Altitude 30000
Route ROKIB DCT NAXAV DCT UNIMI L12 MOGTI Q163 HAFUN/N0405F240 Q163 ETASA T163 SPESA SPESA5B
Aircraft A359/H-SDE2E3GHIJ3J4J5LM1ORWXY/LB1D1

Departure

Time N/A
Airport Venice Marco Polo Airport (LIPZ)

Arrival

Time 2026-04-14 09:29
Airport Frankfurt Main Airport (EDDF)
Time Latitude Longitude Altitude Speed Heading
2026-04-14 08:57 45.92680 11.84092 29597 ft 446 kts 348°
2026-04-14 08:58 45.94173 11.83569 29900 ft 438 kts 345°
2026-04-14 08:58 45.97051 11.82247 30115 ft 418 kts 338°
2026-04-14 08:58 45.99695 11.80569 29995 ft 418 kts 333°
2026-04-14 08:58 46.02265 11.78672 29973 ft 423 kts 330°
2026-04-14 08:59 46.37247 11.48864 29929 ft 426 kts 328°
2026-04-14 08:59 46.80263 11.11631 29620 ft 429 kts 327°
2026-04-14 09:00 47.01450 10.96115 30031 ft 427 kts 335°
2026-04-14 09:00 47.23165 10.82158 30082 ft 426 kts 333°
2026-04-14 09:00 47.66805 10.55449 30135 ft 421 kts 335°
2026-04-14 09:01 48.11530 10.28783 30483 ft 414 kts 336°
2026-04-14 09:01 48.31139 10.11690 30106 ft 409 kts 316°
2026-04-14 09:01 48.48440 9.89450 30137 ft 406 kts 320°
2026-04-14 09:02 48.79150 9.50169 30124 ft 401 kts 317°
2026-04-14 09:02 48.84672 9.42848 29955 ft 413 kts 317°
2026-04-14 09:03 48.93708 9.32263 28281 ft 405 kts 330°
2026-04-14 09:03 49.03616 9.24628 26466 ft 394 kts 332°
2026-04-14 09:03 49.13323 9.17266 24692 ft 385 kts 332°
2026-04-14 09:03 49.23509 9.13405 22816 ft 383 kts
2026-04-14 09:04 49.34077 9.14899 21016 ft 376 kts
2026-04-14 09:04 49.44363 9.16450 19243 ft 368 kts
2026-04-14 09:04 49.54478 9.17896 17449 ft 360 kts
2026-04-14 09:04 49.64415 9.19644 15303 ft 363 kts 16°
2026-04-14 09:05 49.72298 9.28881 13284 ft 353 kts 34°
2026-04-14 09:05 49.80562 9.36535 11181 ft 343 kts 43°
2026-04-14 09:05 49.83467 9.45369 9880 ft 333 kts 73°
2026-04-14 09:05 49.84111 9.48744 9661 ft 320 kts 73°
2026-04-14 09:06 49.84724 9.51989 9438 ft 309 kts 73°
2026-04-14 09:06 49.85314 9.55123 9226 ft 298 kts 73°
2026-04-14 09:06 49.85880 9.58161 8926 ft 291 kts 73°
2026-04-14 09:06 49.86430 9.61162 8537 ft 288 kts 74°
2026-04-14 09:07 49.86975 9.64138 8144 ft 286 kts 74°
2026-04-14 09:07 49.87514 9.67077 7744 ft 283 kts 73°
2026-04-14 09:07 49.88049 9.70014 7326 ft 283 kts 73°
2026-04-14 09:07 49.88583 9.72933 7055 ft 279 kts 73°
2026-04-14 09:08 49.89114 9.75828 6656 ft 278 kts 73°
2026-04-14 09:08 49.89642 9.78698 6242 ft 276 kts 73°
2026-04-14 09:08 49.90483 9.81341 5804 ft 272 kts 50°
2026-04-14 09:08 49.91932 9.83077 5428 ft 266 kts 22°
2026-04-14 09:09 49.93710 9.83574 5096 ft 259 kts 354°
2026-04-14 09:09 49.95471 9.83053 4999 ft 258 kts 348°
2026-04-14 09:09 49.97270 9.83018 5000 ft 260 kts
2026-04-14 09:09 49.99069 9.83199 4992 ft 260 kts 353°
2026-04-14 09:10 50.00810 9.82510 5002 ft 255 kts 340°
2026-04-14 09:10 50.02382 9.81471 4993 ft 237 kts 334°
2026-04-14 09:10 50.03821 9.80380 4999 ft 226 kts 334°
2026-04-14 09:10 50.05241 9.79294 5007 ft 236 kts 334°
2026-04-14 09:11 50.06773 9.78112 5007 ft 253 kts 333°
2026-04-14 09:11 50.08142 9.76382 5098 ft 259 kts 306°
2026-04-14 09:11 50.08814 9.73773 5739 ft 265 kts 279°
2026-04-14 09:11 50.08994 9.70909 6746 ft 267 kts 274°
2026-04-14 09:12 50.09122 9.68023 7476 ft 268 kts 274°
2026-04-14 09:12 50.09249 9.65114 7856 ft 271 kts 274°
2026-04-14 09:12 50.09378 9.62193 7938 ft 270 kts 274°
2026-04-14 09:12 50.09499 9.59272 7950 ft 271 kts 274°
2026-04-14 09:13 50.09623 9.56354 7949 ft 270 kts 275°
2026-04-14 09:13 50.09915 9.53475 7953 ft 269 kts 282°
2026-04-14 09:13 50.10316 9.50635 7993 ft 268 kts 282°
2026-04-14 09:13 50.10732 9.47791 8349 ft 273 kts 283°
2026-04-14 09:14 50.10930 9.44832 9206 ft 277 kts 263°
2026-04-14 09:14 50.10393 9.41973 10154 ft 276 kts 246°
2026-04-14 09:14 50.09555 9.39186 10721 ft 295 kts 244°
2026-04-14 09:14 50.08609 9.36185 10922 ft 320 kts 244°
2026-04-14 09:15 50.07614 9.33039 10964 ft 326 kts 244°
2026-04-14 09:15 50.06611 9.29873 10961 ft 326 kts 244°
2026-04-14 09:15 50.05607 9.26703 10959 ft 327 kts 244°
2026-04-14 09:15 50.04602 9.23530 10962 ft 328 kts 244°
2026-04-14 09:16 50.03605 9.20395 10962 ft 328 kts 244°
2026-04-14 09:16 50.02729 9.17125 10962 ft 328 kts 253°
2026-04-14 09:16 50.02229 9.13676 10970 ft 327 kts 259°
2026-04-14 09:16 50.01860 9.10177 10966 ft 328 kts 261°
2026-04-14 09:17 50.01518 9.06673 10971 ft 328 kts 261°
2026-04-14 09:17 50.01186 9.03163 10971 ft 328 kts 261°
2026-04-14 09:17 50.00857 8.99650 10973 ft 328 kts 261°
2026-04-14 09:17 50.00530 8.96144 10975 ft 328 kts 261°
2026-04-14 09:18 50.00204 8.92633 10978 ft 328 kts 261°
2026-04-14 09:18 49.99878 8.89128 10927 ft 329 kts 261°
2026-04-14 09:18 49.99548 8.85592 10415 ft 332 kts 261°
2026-04-14 09:18 49.99219 8.82075 9975 ft 326 kts 261°
2026-04-14 09:19 49.98897 8.78640 9639 ft 316 kts 261°
2026-04-14 09:19 49.98586 8.75337 9419 ft 302 kts 261°
2026-04-14 09:19 49.98254 8.72182 9191 ft 291 kts 257°
2026-04-14 09:19 49.97670 8.69234 8959 ft 281 kts 250°
2026-04-14 09:20 49.96991 8.66403 8550 ft 278 kts 250°
2026-04-14 09:20 49.96312 8.63614 8218 ft 275 kts 250°
2026-04-14 09:20 49.95640 8.60838 7876 ft 274 kts 251°
2026-04-14 09:20 49.94972 8.58079 7544 ft 273 kts 251°
2026-04-14 09:21 49.94308 8.55325 7217 ft 272 kts 251°
2026-04-14 09:21 49.93644 8.52576 6903 ft 272 kts 251°
2026-04-14 09:21 49.92980 8.49826 6556 ft 272 kts 251°
2026-04-14 09:21 49.92317 8.47089 6126 ft 271 kts 251°
2026-04-14 09:22 49.91665 8.44396 5892 ft 262 kts 251°
2026-04-14 09:22 49.91040 8.41803 5729 ft 251 kts 252°
2026-04-14 09:22 49.90438 8.39313 5560 ft 241 kts 252°
2026-04-14 09:22 49.89870 8.36968 5362 ft 225 kts 252°
2026-04-14 09:23 49.89590 8.34709 5100 ft 205 kts 278°
2026-04-14 09:23 49.90098 8.32754 4717 ft 196 kts 314°
2026-04-14 09:23 49.91218 8.31697 4342 ft 187 kts 347°
2026-04-14 09:23 49.92507 8.31487 4032 ft 187 kts
2026-04-14 09:24 49.93763 8.31604 3997 ft 173 kts
2026-04-14 09:24 49.94876 8.32067 3936 ft 163 kts 22°
2026-04-14 09:24 49.95912 8.32805 3558 ft 164 kts 25°
2026-04-14 09:24 49.96911 8.33564 3197 ft 161 kts 25°
2026-04-14 09:25 49.97921 8.34355 2836 ft 158 kts 26°
2026-04-14 09:25 49.98602 8.35646 2585 ft 158 kts 66°
2026-04-14 09:25 49.98906 8.37243 2417 ft 154 kts 71°
2026-04-14 09:25 49.99230 8.38793 2201 ft 148 kts 67°
2026-04-14 09:26 49.99599 8.40254 1943 ft 144 kts 66°
2026-04-14 09:26 49.99954 8.41722 1653 ft 143 kts 66°
2026-04-14 09:26 50.00295 8.43157 1431 ft 135 kts 66°
2026-04-14 09:26 50.00584 8.44423 1384 ft 121 kts 68°
2026-04-14 09:27 50.00897 8.45711 1434 ft 133 kts 66°
2026-04-14 09:27 50.01236 8.47079 1282 ft 136 kts 66°
2026-04-14 09:27 50.01558 8.48422 1038 ft 132 kts 66°
2026-04-14 09:27 50.01875 8.49776 875 ft 131 kts 65°
2026-04-14 09:28 50.02195 8.51109 691 ft 131 kts 67°
2026-04-14 09:28 50.02511 8.52408 501 ft 129 kts 67°
2026-04-14 09:28 50.02824 8.53710 359 ft 127 kts 68°
2026-04-14 09:28 50.03110 8.54899 358 ft 98 kts 69°
2026-04-14 09:29 50.03252 8.55494 359 ft 34 kts 69°
2026-04-14 09:29 50.03382 8.55787 359 ft 31 kts 41°
2026-04-14 09:29 50.03528 8.55976 363 ft 24 kts 40°